M I D A S
Marine Information and Data Acquisition System
Tripno 1284 of the Zeeleeuw from 2007-06-11 04:43:44 to 2007-06-11 13:47:03
Back to CruiseResearch ActivitiesStationsMapUnderway DataData graphs

EquipmentUnitsComments
TimeDGPSUTC
LatitudeDGPSDM.mWGS84
LongitudeDGPSDM.mWGS84
SpeedMeteo Stationm/sRelative wind speed
DirectionMeteo StationdegRelative wind direction
TemperatureMeteo Stationdeg CelciusAir temperature
PressureMeteo StationPaAtmospheric pressure
HumidityMeteo Station%Relative humidity
Missing or incorrect values are displayed as -999
Metereological data collected by the RV Zeeleeuw from 2007-06-11 04:46:55 to 2007-06-11 13:58:25
Time Latitude Longitude Speed Direction Temperature Pressure Humidity
2007-06-11 04:48 51°13.6 2°56.061 3.5 58 14.6 101440 100
2007-06-11 04:49 51°13.643 2°55.931 3.3 52 14.7 101440 100
2007-06-11 04:50 51°13.679 2°55.805 2.3 54 14.7 101440 100
2007-06-11 04:51 51°13.686 2°55.743 4 307 14.7 101440 100
2007-06-11 04:52 51°13.699 2°55.751 3 302 14.7 101440 100
2007-06-11 04:53 51°13.736 2°55.738 3 334 14.7 101430 100
2007-06-11 04:53 51°13.803 2°55.667 5.2 341 14.7 101430 100
2007-06-11 04:55 51°13.899 2°55.599 5.6 340 14.7 101430 100
2007-06-11 04:56 51°14.004 2°55.53 6.4 338 14.7 101430 100
2007-06-11 04:57 51°14.133 2°55.43 7.2 339 14.7 101430 100
2007-06-11 04:58 51°14.263 2°55.262 6.4 341 14.6 101430 100
2007-06-11 04:58 51°14.377 2°55.038 7.5 342 14.7 101430 100
2007-06-11 04:59 51°14.523 2°54.8 9.3 340 14.6 101420 100
2007-06-11 05:00 51°14.691 2°54.588 9 336 14.6 101430 100
2007-06-11 05:01 51°14.863 2°54.377 9.9 340 14.6 101430 100
2007-06-11 05:02 51°15.034 2°54.174 8.8 337 14.5 101420 100
2007-06-11 05:04 51°15.214 2°53.975 9.7 336 14.5 101420 100
2007-06-11 05:04 51°15.389 2°53.783 9.6 336 14.5 101420 100
2007-06-11 05:05 51°15.572 2°53.603 8.7 336 14.4 101430 100
2007-06-11 05:06 51°15.761 2°53.444 8.7 334 14.4 101420 100
2007-06-11 05:07 51°15.95 2°53.284 9.1 338 14.4 101420 100
2007-06-11 05:08 51°16.138 2°53.127 9.5 336 14.4 101420 100
2007-06-11 05:09 51°16.329 2°52.979 9.4 336 14.4 101420 100
2007-06-11 05:11 51°16.526 2°52.841 9.5 337 14.3 101420 100
2007-06-11 05:11 51°16.716 2°52.71 9.4 338 14.4 101420 100
2007-06-11 05:13 51°16.913 2°52.589 8.8 336 14.3 101430 100
2007-06-11 05:13 51°17.107 2°52.487 9.3 336 14.3 101430 100
2007-06-11 05:15 51°17.305 2°52.375 9.2 335 14.3 101430 100
2007-06-11 05:15 51°17.499 2°52.269 9.4 339 14.3 101430 100
2007-06-11 05:16 51°17.694 2°52.161 9.2 337 14.3 101430 100
2007-06-11 05:17 51°17.89 2°52.057 8.7 340 14.3 101440 100
2007-06-11 05:18 51°18.087 2°51.953 8.9 338 14.3 101430 100
2007-06-11 05:20 51°18.289 2°51.849 9.5 339 14.3 101420 100
2007-06-11 05:20 51°18.485 2°51.747 9 338 14.3 101430 100
2007-06-11 05:22 51°18.687 2°51.64 9.5 340 14.3 101430 100
2007-06-11 05:22 51°18.882 2°51.535 8.9 339 14.3 101430 100
2007-06-11 05:24 51°19.083 2°51.425 9.8 284 14.3 101430 100
2007-06-11 05:24 51°19.278 2°51.32 9.6 340 14.2 101420 100
2007-06-11 05:25 51°19.478 2°51.216 9.4 278 14.2 101430 100
2007-06-11 05:26 51°19.681 2°51.138 9.4 337 14.2 101430 100
2007-06-11 05:27 51°19.884 2°51.062 8.4 279 14.2 101430 100
2007-06-11 05:28 51°20.088 2°50.98 9.5 333 14.2 101440 100
2007-06-11 05:29 51°20.289 2°50.894 9.5 281 14.1 101440 100
2007-06-11 05:30 51°20.493 2°50.807 9.8 335 14.1 101440 100
2007-06-11 05:31 51°20.698 2°50.715 9.5 282 14.1 101440 100
2007-06-11 05:32 51°20.906 2°50.645 9.8 336 14.1 101440 100
2007-06-11 05:34 51°21.119 2°50.575 10.2 277 14.1 101440 100
2007-06-11 05:35 51°21.313 2°50.426 9.4 341 14.1 101440 100
2007-06-11 05:36 51°21.482 2°50.198 9.3 280 14.1 101440 100
2007-06-11 05:37 51°21.639 2°49.949 9.2 339 14.1 101440 100
2007-06-11 05:38 51°21.794 2°49.706 9.7 281 14 101440 100
2007-06-11 05:39 51°21.952 2°49.469 8.2 344 14 101440 100
2007-06-11 05:40 51°22.105 2°49.225 8.5 282 14 101440 100
2007-06-11 05:41 51°22.256 2°48.978 9.2 344 14 101450 100
2007-06-11 05:42 51°22.405 2°48.731 7.6 283 14 101440 100
2007-06-11 05:43 51°22.553 2°48.485 8.1 345 14 101440 100
2007-06-11 05:44 51°22.684 2°48.215 7.8 279 14 101440 100
2007-06-11 05:45 51°22.814 2°47.939 7.6 342 13.9 101440 100
2007-06-11 05:46 51°22.936 2°47.648 7.5 281 13.9 101440 100
2007-06-11 05:47 51°23.034 2°47.333 7.5 342 13.9 101450 100
2007-06-11 05:48 51°23.094 2°46.987 7.5 285 13.9 101450 100
2007-06-11 05:49 51°23.158 2°46.644 7.2 340 13.9 101450 100
2007-06-11 05:50 51°23.225 2°46.305 7.4 279 13.8 101450 100
2007-06-11 05:51 51°23.251 2°45.95 6.6 338 13.9 101450 100
2007-06-11 05:52 51°23.266 2°45.587 6.9 283 13.8 101450 100
2007-06-11 05:53 51°23.311 2°45.231 6.9 339 13.9 101460 100
2007-06-11 05:54 51°23.363 2°44.877 6.8 278 13.8 101460 100
2007-06-11 05:55 51°23.417 2°44.522 7.1 339 13.8 101470 100
2007-06-11 05:56 51°23.487 2°44.188 7 284 13.8 101470 100
2007-06-11 05:57 51°23.611 2°43.964 6.2 336 13.8 101470 100
2007-06-11 05:58 51°23.711 2°43.971 4.4 284 13.7 101480 100
2007-06-11 05:59 51°23.775 2°44.088 4.8 307 13.7 101470 100
2007-06-11 06:00 51°23.832 2°44.16 3.3 283 13.8 101480 100
2007-06-11 06:01 51°23.862 2°44.219 2.6 323 13.8 101480 100
2007-06-11 06:02 51°23.89 2°44.262 3.3 278 13.7 101480 100
2007-06-11 06:03 51°23.921 2°44.302 2.1 324 13.8 101480 100
2007-06-11 06:04 51°23.943 2°44.343 1.6 282 13.7 101480 100
2007-06-11 06:05 51°23.964 2°44.364 2.1 307 13.8 101480 100
2007-06-11 06:06 51°23.985 2°44.359 1.8 278 13.8 101480 100
2007-06-11 06:07 51°24.001 2°44.347 1.6 346 13.8 101480 100
2007-06-11 06:08 51°24.012 2°44.334 1.6 278 13.8 101490 100
2007-06-11 06:09 51°24.022 2°44.322 2 331 13.8 101490 100
2007-06-11 06:10 51°24.04 2°44.301 1.8 277 13.8 101490 100
2007-06-11 06:11 51°24.054 2°44.247 2.2 351 13.7 101490 100
2007-06-11 06:12 51°24.013 2°44.165 0.6 350 13.7 101490 100
2007-06-11 06:13 51°23.965 2°44.166 0.7 306 13.7 101490 100
2007-06-11 06:14 51°23.943 2°44.178 1.1 285 13.8 101480 100
2007-06-11 06:15 51°23.934 2°44.181 0.8 305 13.8 101490 100
2007-06-11 06:16 51°23.928 2°44.179 1.1 286 13.8 101480 100
2007-06-11 06:17 51°23.922 2°44.177 1.5 303 13.8 101490 100
2007-06-11 06:18 51°23.917 2°44.174 1.2 282 13.8 101480 100
2007-06-11 06:19 51°23.912 2°44.171 1.3 306 13.8 101490 100
2007-06-11 06:20 51°23.907 2°44.169 1.6 284 13.9 101490 100
2007-06-11 06:21 51°23.902 2°44.165 1.9 307 13.9 101490 100
2007-06-11 06:22 51°23.897 2°44.162 2.4 280 13.9 101490 100
2007-06-11 06:23 51°23.892 2°44.159 2.2 304 13.9 101490 100
2007-06-11 06:24 51°23.888 2°44.157 1.8 279 13.9 101490 100
2007-06-11 06:25 51°23.883 2°44.154 1.7 301 13.9 101490 100
2007-06-11 06:26 51°23.879 2°44.152 1.8 279 13.8 101490 100
2007-06-11 06:27 51°23.875 2°44.151 2 301 13.8 101490 100
2007-06-11 06:28 51°23.871 2°44.15 2.1 279 13.8 101490 100
2007-06-11 06:29 51°23.868 2°44.149 2 307 13.9 101480 100
2007-06-11 06:30 51°23.864 2°44.149 3 281 13.9 101490 100
2007-06-11 06:31 51°23.862 2°44.148 2.6 303 13.9 101490 100
2007-06-11 06:32 51°23.859 2°44.148 2.7 279 13.9 101490 100
2007-06-11 06:33 51°23.857 2°44.15 2.3 301 13.9 101490 100
2007-06-11 06:34 51°23.869 2°44.193 3.4 279 13.9 101490 100
2007-06-11 06:35 51°23.883 2°44.224 2.2 309 13.9 101490 100
2007-06-11 06:36 51°23.88 2°44.218 1.9 280 13.9 101490 100
2007-06-11 06:37 51°23.877 2°44.214 2.6 305 13.9 101490 100
2007-06-11 06:38 51°23.876 2°44.21 3.1 279 13.9 101490 100
2007-06-11 06:39 51°23.874 2°44.209 2.1 309 13.9 101490 100
2007-06-11 06:40 51°23.874 2°44.208 2.2 280 13.9 101490 100
2007-06-11 06:41 51°23.873 2°44.208 1.9 303 13.9 101490 100
2007-06-11 06:42 51°23.874 2°44.209 2.4 280 13.9 101490 100
2007-06-11 06:43 51°23.873 2°44.21 1.7 305 13.9 101490 100
2007-06-11 06:44 51°23.873 2°44.212 1.5 280 13.9 101490 100
2007-06-11 06:45 51°23.873 2°44.215 1.2 308 13.9 101490 100
2007-06-11 06:46 51°23.873 2°44.219 1.6 277 13.9 101490 100
2007-06-11 06:47 51°23.874 2°44.223 1.8 351 13.9 101490 100
2007-06-11 06:48 51°23.875 2°44.229 2.4 280 13.9 101490 100
2007-06-11 06:49 51°23.876 2°44.236 2 284 13.9 101490 100
2007-06-11 06:50 51°23.875 2°44.264 2.8 303 13.9 101490 100
2007-06-11 06:51 51°23.88 2°44.336 3.4 282 13.9 101490 100
2007-06-11 06:52 51°23.896 2°44.385 2.5 307 13.9 101490 100
2007-06-11 06:53 51°23.91 2°44.415 2.7 279 13.9 101490 100
2007-06-11 06:54 51°23.919 2°44.436 2.6 302 14 101490 100
2007-06-11 06:55 51°23.928 2°44.457 2.1 284 13.9 101490 100
2007-06-11 06:56 51°23.934 2°44.476 2 303 14 101490 100
2007-06-11 06:57 51°23.942 2°44.493 2.6 285 14 101500 100
2007-06-11 06:58 51°23.949 2°44.509 3 307 14 101500 100
2007-06-11 06:59 51°23.957 2°44.525 2.5 279 14 101490 100
2007-06-11 07:00 51°23.963 2°44.541 2.2 308 14 101490 100
2007-06-11 07:01 51°23.97 2°44.558 2.9 281 14 101490 100
2007-06-11 07:02 51°23.977 2°44.579 2.9 306 14 101490 100
2007-06-11 07:03 51°24.016 2°44.609 4.1 278 14 101480 100
2007-06-11 07:04 51°24.057 2°44.554 3.3 358 14 101490 100
2007-06-11 07:05 51°24.037 2°44.486 2.3 16 14 101490 100
2007-06-11 07:06 51°24.003 2°44.433 2.5 20 14 101490 100
2007-06-11 07:07 51°23.991 2°44.401 3.1 21 14 101490 100
2007-06-11 07:08 51°23.992 2°44.383 3.2 15 14 101490 100
2007-06-11 07:09 51°23.997 2°44.371 3.2 12 13.9 101490 100
2007-06-11 07:10 51°24.005 2°44.364 3.2 14 13.9 101490 100
2007-06-11 07:11 51°24.014 2°44.361 2.9 7 14 101490 100
2007-06-11 07:12 51°24.022 2°44.36 3 6 14 101490 100
2007-06-11 07:13 51°24.031 2°44.353 4 14 14 101480 100
2007-06-11 07:14 51°24.026 2°44.321 2.7 38 14 101480 100
2007-06-11 07:15 51°23.991 2°44.326 3.6 52 14 101480 100
2007-06-11 07:16 51°23.972 2°44.369 3.9 302 14 101480 100
2007-06-11 07:17 51°23.964 2°44.409 3.8 302 14 101490 100
2007-06-11 07:18 51°23.961 2°44.446 3.3 302 14 101490 100
2007-06-11 07:19 51°23.962 2°44.478 3.4 306 14 101490 100
2007-06-11 07:20 51°23.962 2°44.508 4.8 308 14 101490 100
2007-06-11 07:21 51°23.965 2°44.535 3.9 308 14 101480 100
2007-06-11 07:22 51°23.97 2°44.562 4.4 306 14 101480 100
2007-06-11 07:23 51°23.975 2°44.586 4.5 308 14 101480 100
2007-06-11 07:24 51°23.98 2°44.609 3.9 303 14 101480 100
2007-06-11 07:25 51°23.986 2°44.631 3.4 307 14 101490 100
2007-06-11 07:26 51°23.992 2°44.652 3.6 307 14 101480 100
2007-06-11 07:27 51°23.998 2°44.674 5.4 302 14 101480 100
2007-06-11 07:28 51°24.005 2°44.696 5 283 14 101480 100
2007-06-11 07:29 51°24.013 2°44.719 6.2 302 14 101480 100
2007-06-11 07:30 51°24.031 2°44.78 6 308 14 101470 100
2007-06-11 07:31 51°24.089 2°44.822 6.4 348 14 101460 100
2007-06-11 07:32 51°24.129 2°44.767 4.5 22 13.9 101460 100
2007-06-11 07:33 51°24.099 2°44.688 3 25 13.9 101470 100
2007-06-11 07:34 51°24.046 2°44.584 3.6 29 14 101470 100
2007-06-11 07:35 51°24.003 2°44.491 3 34 14 101470 100
2007-06-11 07:36 51°23.965 2°44.444 4.4 41 14 101470 100
2007-06-11 07:37 51°23.944 2°44.424 4.2 57 13.9 101470 100
2007-06-11 07:38 51°23.931 2°44.417 4 43 13.9 101480 100
2007-06-11 07:39 51°23.932 2°44.419 4.9 32 14 101470 100
2007-06-11 07:40 51°23.938 2°44.423 4.9 28 14 101470 100
2007-06-11 07:41 51°23.946 2°44.431 4.8 23 14 101470 100
2007-06-11 07:42 51°23.955 2°44.442 4.9 18 14 101480 100
2007-06-11 07:43 51°23.966 2°44.456 4.4 17 14 101480 100
2007-06-11 07:44 51°23.975 2°44.47 4.5 16 14 101480 100
2007-06-11 07:45 51°23.985 2°44.487 4.5 15 14 101470 100
2007-06-11 07:46 51°23.994 2°44.505 4.8 15 14 101480 100
2007-06-11 07:47 51°24.002 2°44.523 4.9 17 14 101480 100
2007-06-11 07:48 51°24.009 2°44.532 4.7 28 13.9 101470 100
2007-06-11 07:49 51°24.004 2°44.504 3.1 40 13.9 101480 100
2007-06-11 07:50 51°23.976 2°44.458 3 38 13.9 101480 100
2007-06-11 07:51 51°23.95 2°44.389 3.7 24 13.9 101480 100
2007-06-11 07:52 51°23.927 2°44.33 3.9 36 14 101480 100
2007-06-11 07:53 51°23.921 2°44.3 4.9 29 13.9 101480 100
2007-06-11 07:54 51°23.932 2°44.305 4.7 18 13.9 101480 100
2007-06-11 07:55 51°23.946 2°44.317 4.9 10 14 101480 100
2007-06-11 07:56 51°23.958 2°44.333 4.2 10 13.9 101480 100
2007-06-11 07:57 51°23.967 2°44.355 4.6 13 13.9 101480 100
2007-06-11 07:58 51°23.974 2°44.383 4.3 18 14 101480 100
2007-06-11 07:59 51°23.983 2°44.399 4.8 26 14 101480 100
2007-06-11 08:00 51°23.985 2°44.389 3.8 38 14 101490 100
2007-06-11 08:01 51°23.975 2°44.36 3.9 37 13.9 101480 100
2007-06-11 08:02 51°23.95 2°44.313 3.6 35 14 101480 100
2007-06-11 08:03 51°23.926 2°44.287 4.2 76 14 101480 100
2007-06-11 08:04 51°23.918 2°44.3 4.3 58 14.1 101480 100
2007-06-11 08:05 51°23.918 2°44.325 5.5 81 14 101480 100
2007-06-11 08:06 51°23.922 2°44.351 4.5 57 14 101480 100
2007-06-11 08:07 51°23.928 2°44.379 5.6 81 14 101480 100
2007-06-11 08:08 51°23.93 2°44.41 4.8 51 13.9 101480 100
2007-06-11 08:09 51°23.915 2°44.429 4.6 43 14 101480 100
2007-06-11 08:10 51°23.911 2°44.409 4.5 24 14 101470 100
2007-06-11 08:11 51°23.917 2°44.369 4.3 33 14 101470 100
2007-06-11 08:12 51°23.915 2°44.32 5.4 19 14 101480 100
2007-06-11 08:13 51°23.931 2°44.298 5.3 17 14 101470 100
2007-06-11 08:14 51°23.944 2°44.29 5 27 14 101470 100
2007-06-11 08:15 51°23.944 2°44.28 3.9 36 14 101470 100
2007-06-11 08:16 51°23.934 2°44.269 4.7 34 14 101470 100
2007-06-11 08:17 51°23.932 2°44.264 5.8 34 14 101470 100
2007-06-11 08:18 51°23.936 2°44.265 5.9 31 14 101470 100
2007-06-11 08:19 51°23.944 2°44.271 5.5 25 13.9 101470 100
2007-06-11 08:20 51°23.956 2°44.283 5.2 21 14 101470 100
2007-06-11 08:21 51°23.969 2°44.289 5.2 24 14 101470 100
2007-06-11 08:22 51°23.968 2°44.273 3.8 77 14 101480 100
2007-06-11 08:23 51°23.941 2°44.26 3.5 56 14 101480 100
2007-06-11 08:24 51°23.911 2°44.266 3.5 80 13.9 101480 100
2007-06-11 08:25 51°23.895 2°44.295 4.3 59 14.1 101480 100
2007-06-11 08:26 51°23.905 2°44.325 4.9 75 14 101480 100
2007-06-11 08:27 51°23.922 2°44.35 5.5 57 14 101480 100
2007-06-11 08:28 51°23.936 2°44.377 4.3 80 14 101480 100
2007-06-11 08:29 51°23.948 2°44.406 4.4 58 14 101480 100
2007-06-11 08:30 51°23.956 2°44.436 3.1 76 14 101480 100
2007-06-11 08:31 51°23.891 2°44.472 0.7 57 14 101480 100
2007-06-11 08:32 51°23.73 2°44.456 1.2 282 14 101480 100
2007-06-11 08:33 51°23.581 2°44.301 4.3 -999 14.1 101480 100
2007-06-11 08:34 51°23.525 2°44.015 7.1 355 14 101470 100
2007-06-11 08:35 51°23.485 2°43.716 6.8 357 14 101470 100
2007-06-11 08:36 51°23.442 2°43.419 5.6 4 14 101470 100
2007-06-11 08:37 51°23.393 2°43.123 6 2 14 101470 100
2007-06-11 08:38 51°23.341 2°42.824 5.7 -999 14 101470 100
2007-06-11 08:39 51°23.29 2°42.532 6.4 359 14 101470 100
2007-06-11 08:40 51°23.237 2°42.236 5.9 359 13.9 101460 100
2007-06-11 08:41 51°23.184 2°41.94 5.7 1 13.9 101460 100
2007-06-11 08:42 51°23.13 2°41.643 6.8 357 13.9 101460 100
2007-06-11 08:43 51°23.074 2°41.347 7 359 13.9 101460 100
2007-06-11 08:44 51°23.018 2°41.05 6.1 356 13.9 101460 100
2007-06-11 08:45 51°22.964 2°40.751 7 358 13.9 101460 100
2007-06-11 08:46 51°22.869 2°40.491 3.3 355 13.9 101470 100
2007-06-11 08:47 51°22.696 2°40.359 1.9 346 13.8 101480 100
2007-06-11 08:48 51°22.516 2°40.233 2.4 337 13.8 101480 100
2007-06-11 08:49 51°22.338 2°40.103 2.6 279 13.8 101490 100
2007-06-11 08:50 51°22.161 2°39.966 2.2 353 13.9 101480 100
2007-06-11 08:51 51°21.985 2°39.827 2.6 279 13.9 101480 100
2007-06-11 08:52 51°21.809 2°39.69 2.8 351 13.9 101480 100
2007-06-11 08:53 51°21.634 2°39.553 1.9 352 13.9 101480 100
2007-06-11 08:54 51°21.457 2°39.416 2.1 351 13.9 101470 100
2007-06-11 08:55 51°21.279 2°39.277 2.2 346 13.9 101480 100
2007-06-11 08:56 51°21.102 2°39.135 3.3 344 13.9 101470 100
2007-06-11 08:57 51°20.946 2°38.941 3.8 353 14 101470 100
2007-06-11 08:58 51°20.793 2°38.739 3.1 350 13.9 101470 100
2007-06-11 08:59 51°20.639 2°38.54 3.2 345 13.9 101480 100
2007-06-11 09:00 51°20.486 2°38.347 3.6 348 13.9 101480 100
2007-06-11 09:01 51°20.335 2°38.156 4.6 280 13.9 101480 100
2007-06-11 09:02 51°20.189 2°37.958 5.1 354 13.9 101480 100
2007-06-11 09:03 51°20.182 2°37.695 6.2 360 13.8 101470 100
2007-06-11 09:04 51°20.169 2°37.486 4.2 4 13.9 101470 100
2007-06-11 09:05 51°20.124 2°37.296 4.2 2 13.9 101480 100
2007-06-11 09:06 51°20.083 2°37.099 3.5 4 13.8 101480 100
2007-06-11 09:07 51°20.028 2°36.963 3.2 22 13.8 101480 100
2007-06-11 09:08 51°20.027 2°36.893 4 9 13.9 101480 100
2007-06-11 09:09 51°20.053 2°36.868 4.4 1 13.9 101480 100
2007-06-11 09:10 51°20.073 2°36.871 4 5 13.9 101480 100
2007-06-11 09:11 51°20.09 2°36.888 3.9 2 13.9 101480 100
2007-06-11 09:12 51°20.105 2°36.907 3.8 356 13.9 101480 100
2007-06-11 09:13 51°20.12 2°36.929 4.2 351 13.9 101490 100
2007-06-11 09:14 51°20.133 2°36.953 3.7 355 13.8 101490 100
2007-06-11 09:15 51°20.144 2°36.978 4.1 358 13.8 101490 100
2007-06-11 09:16 51°20.159 2°36.988 4.9 12 13.8 101490 100
2007-06-11 09:17 51°20.165 2°36.978 3.6 29 13.9 101480 100
2007-06-11 09:18 51°20.145 2°36.956 2.7 34 13.9 101490 100
2007-06-11 09:19 51°20.119 2°36.923 3.1 27 13.9 101490 100
2007-06-11 09:20 51°20.099 2°36.888 3.2 29 13.9 101490 100
2007-06-11 09:21 51°20.079 2°36.886 2.3 58 13.9 101490 100
2007-06-11 09:22 51°20.072 2°36.917 3 80 14 101490 100
2007-06-11 09:23 51°20.07 2°36.954 3.3 57 14 101490 100
2007-06-11 09:24 51°20.07 2°36.995 3.3 290 14 101490 100
2007-06-11 09:25 51°20.072 2°37.039 3.7 61 14 101490 100
2007-06-11 09:26 51°20.076 2°37.084 4 278 14 101490 100
2007-06-11 09:27 51°20.08 2°37.13 3.6 303 14 101490 100
2007-06-11 09:28 51°20.085 2°37.178 2.4 279 14 101490 100
2007-06-11 09:29 51°20.068 2°37.242 1.5 58 14 101490 100
2007-06-11 09:30 51°20.035 2°37.237 3.3 19 14.1 101490 100
2007-06-11 09:31 51°20.059 2°37.17 4.9 357 14.1 101490 100
2007-06-11 09:32 51°20.087 2°37.058 5.1 1 14 101480 100
2007-06-11 09:33 51°20.103 2°36.947 4.1 22 13.9 101480 100
2007-06-11 09:34 51°20.08 2°36.893 3.6 32 14 101480 100
2007-06-11 09:35 51°20.069 2°36.871 4.1 31 14 101480 100
2007-06-11 09:36 51°20.071 2°36.867 3.8 23 14 101470 100
2007-06-11 09:37 51°20.076 2°36.871 4.5 27 14 101470 100
2007-06-11 09:38 51°20.085 2°36.882 3.6 27 14 101470 100
2007-06-11 09:39 51°20.095 2°36.897 4.1 25 14.1 101470 100
2007-06-11 09:40 51°20.106 2°36.916 4.5 21 14.1 101470 100
2007-06-11 09:41 51°20.118 2°36.939 4.1 26 14 101470 100
2007-06-11 09:42 51°20.129 2°36.964 3.8 27 14 101480 100
2007-06-11 09:43 51°20.142 2°36.99 3.5 20 14 101480 100
2007-06-11 09:44 51°20.156 2°36.996 3.7 16 14 101480 100
2007-06-11 09:45 51°20.147 2°36.959 2.4 36 14 101480 100
2007-06-11 09:46 51°20.115 2°36.94 2.6 28 14 101490 100
2007-06-11 09:47 51°20.097 2°36.916 2.7 33 14.1 101480 100
2007-06-11 09:48 51°20.093 2°36.907 3.2 36 14 101480 100
2007-06-11 09:49 51°20.097 2°36.911 3.3 31 14.1 101490 100
2007-06-11 09:50 51°20.106 2°36.921 3.8 28 14.1 101480 100
2007-06-11 09:51 51°20.116 2°36.939 4.1 27 14.1 101480 100
2007-06-11 09:52 51°20.128 2°36.96 3.9 24 14.1 101490 100
2007-06-11 09:53 51°20.139 2°36.986 3.5 23 14.1 101490 100
2007-06-11 09:54 51°20.149 2°37.002 3.7 36 14.1 101490 100
2007-06-11 09:55 51°20.132 2°36.952 3.1 22 14.1 101490 100
2007-06-11 09:56 51°20.114 2°36.875 2.7 28 14.1 101490 100
2007-06-11 09:57 51°20.095 2°36.848 3 42 14.1 101490 100
2007-06-11 09:58 51°20.082 2°36.858 2.8 52 14.1 101490 100
2007-06-11 09:59 51°20.081 2°36.882 2.8 51 14.1 101490 100
2007-06-11 10:00 51°20.093 2°36.915 3.6 81 14.5 101490 100
2007-06-11 10:01 51°20.109 2°36.948 1.9 52 14.4 101500 100
2007-06-11 10:02 51°20.124 2°36.981 2.5 80 14.7 101490 100
2007-06-11 10:03 51°20.136 2°37.013 2.3 52 14.7 101490 100
2007-06-11 10:04 51°20.145 2°37.044 2.3 82 14.7 101490 100
2007-06-11 10:05 51°20.154 2°37.075 3.6 56 14.7 101480 100
2007-06-11 10:06 51°20.146 2°37.087 3.3 36 14.4 101480 100
2007-06-11 10:07 51°20.113 2°37.006 3.4 18 14.3 101480 100
2007-06-11 10:08 51°20.088 2°36.93 3.2 26 14.2 101480 100
2007-06-11 10:09 51°20.088 2°36.892 4.1 21 14.2 101480 100
2007-06-11 10:10 51°20.1 2°36.905 5.3 11 14.2 101480 100
2007-06-11 10:11 51°20.112 2°36.927 4.4 9 14.1 101480 100
2007-06-11 10:12 51°20.123 2°36.954 4.7 7 14.1 101480 100
2007-06-11 10:13 51°20.135 2°36.966 3.9 17 14.1 101480 100
2007-06-11 10:14 51°20.132 2°36.939 2.6 30 14.1 101480 100
2007-06-11 10:15 51°20.023 2°36.893 1.3 347 14.2 101490 100
2007-06-11 10:16 51°19.842 2°36.823 2.7 278 14.2 101490 100
2007-06-11 10:17 51°19.65 2°36.73 2.4 340 14.2 101480 100
2007-06-11 10:18 51°19.461 2°36.623 4.2 354 14.1 101480 100
2007-06-11 10:19 51°19.279 2°36.492 3.8 344 14.1 101480 100
2007-06-11 10:20 51°19.097 2°36.363 3.7 280 14.1 101480 100
2007-06-11 10:21 51°18.914 2°36.239 3.1 349 14.1 101490 100
2007-06-11 10:22 51°18.731 2°36.111 4.2 350 14.1 101480 100
2007-06-11 10:23 51°18.545 2°35.981 3.9 278 14.1 101480 100
2007-06-11 10:24 51°18.358 2°35.852 3.2 349 14 101480 100
2007-06-11 10:25 51°18.17 2°35.717 3.7 278 14 101480 100
2007-06-11 10:26 51°17.981 2°35.584 3.4 348 14 101480 100
2007-06-11 10:27 51°17.794 2°35.454 3.9 348 14 101480 100
2007-06-11 10:28 51°17.608 2°35.327 4.2 344 14 101480 100
2007-06-11 10:29 51°17.422 2°35.195 4.4 278 14.1 101480 100
2007-06-11 10:30 51°17.237 2°35.067 3.7 346 14 101480 100
2007-06-11 10:31 51°17.051 2°34.938 4.6 280 14.1 101480 100
2007-06-11 10:32 51°16.864 2°34.804 3.8 348 14 101470 100
2007-06-11 10:33 51°16.676 2°34.666 4.2 282 14.1 101480 100
2007-06-11 10:34 51°16.486 2°34.527 4.4 348 14.1 101480 100
2007-06-11 10:35 51°16.295 2°34.383 4.7 278 14.1 101480 100
2007-06-11 10:36 51°16.104 2°34.239 4 346 14.1 101480 100
2007-06-11 10:37 51°15.914 2°34.093 4.3 279 14.1 101480 100
2007-06-11 10:38 51°15.714 2°33.979 4.1 345 14.1 101480 100
2007-06-11 10:39 51°15.525 2°33.829 4.4 348 14.1 101480 100
2007-06-11 10:40 51°15.34 2°33.669 4.1 339 14 101490 100
2007-06-11 10:41 51°15.155 2°33.509 4.6 279 14.1 101490 100
2007-06-11 10:42 51°14.968 2°33.348 4.3 344 14.1 101490 100
2007-06-11 10:43 51°14.782 2°33.189 4.1 280 14.1 101490 100
2007-06-11 10:44 51°14.596 2°33.031 3.2 348 14.1 101490 100
2007-06-11 10:45 51°14.415 2°32.865 4.3 353 14.1 101490 100
2007-06-11 10:46 51°14.25 2°32.659 3.9 352 14.1 101490 100
2007-06-11 10:47 51°14.092 2°32.433 4.5 352 14.1 101480 100
2007-06-11 10:48 51°13.946 2°32.22 3.8 -999 14.1 101480 100
2007-06-11 10:49 51°13.814 2°32.034 3.6 358 14.1 101490 100
2007-06-11 10:50 51°13.69 2°31.86 3.3 4 14.1 101480 100
2007-06-11 10:51 51°13.593 2°31.711 3.4 5 14.1 101490 100
2007-06-11 10:52 51°13.529 2°31.587 3.8 12 14.1 101490 100
2007-06-11 10:53 51°13.474 2°31.476 2.7 20 14.1 101490 100
2007-06-11 10:54 51°13.416 2°31.377 3.5 13 14.2 101490 100
2007-06-11 10:55 51°13.363 2°31.275 4.1 13 14.2 101490 100
2007-06-11 10:56 51°13.329 2°31.178 3.8 18 14.1 101490 100
2007-06-11 10:57 51°13.294 2°31.117 3.1 28 14.1 101500 100
2007-06-11 10:58 51°13.27 2°31.072 3.5 35 14.1 101500 100
2007-06-11 10:59 51°13.243 2°31.048 3 74 14.1 101500 100
2007-06-11 11:00 51°13.21 2°31.058 2.6 51 14.2 101500 100
2007-06-11 11:01 51°13.188 2°31.117 4.8 280 14.2 101500 100
2007-06-11 11:02 51°13.2 2°31.186 5.3 304 14.2 101500 100
2007-06-11 11:03 51°13.236 2°31.22 5.1 280 14.2 101490 100
2007-06-11 11:04 51°13.268 2°31.212 4.3 349 14.2 101490 100
2007-06-11 11:05 51°13.286 2°31.192 4 354 14.2 101490 100
2007-06-11 11:06 51°13.294 2°31.174 4.3 358 14.1 101490 100
2007-06-11 11:07 51°13.298 2°31.161 3.4 359 14.1 101490 100
2007-06-11 11:08 51°13.297 2°31.161 2.9 5 14.1 101490 100
2007-06-11 11:09 51°13.291 2°31.17 3.1 8 14.1 101490 100
2007-06-11 11:10 51°13.286 2°31.18 3.6 16 14.1 101500 100
2007-06-11 11:11 51°13.282 2°31.189 3.7 15 14.1 101500 100
2007-06-11 11:12 51°13.278 2°31.195 3.8 23 14.2 101500 100
2007-06-11 11:13 51°13.275 2°31.2 3.2 27 14.2 101500 100
2007-06-11 11:14 51°13.271 2°31.205 2.9 23 14.2 101510 100
2007-06-11 11:15 51°13.267 2°31.208 3.4 27 14.2 101510 100
2007-06-11 11:16 51°13.262 2°31.21 2.8 24 14.2 101510 100
2007-06-11 11:17 51°13.257 2°31.211 2.7 23 14.2 101510 100
2007-06-11 11:18 51°13.252 2°31.211 2.6 22 14.3 101510 100
2007-06-11 11:19 51°13.247 2°31.209 2.9 20 14.2 101510 100
2007-06-11 11:20 51°13.242 2°31.206 3.1 16 14.2 101510 100
2007-06-11 11:21 51°13.237 2°31.203 3.8 9 14.2 101510 100
2007-06-11 11:22 51°13.232 2°31.199 3.1 17 14.2 101510 100
2007-06-11 11:23 51°13.227 2°31.194 4 12 14.3 101510 100
2007-06-11 11:24 51°13.222 2°31.188 4.1 10 14.2 101510 100
2007-06-11 11:25 51°13.218 2°31.183 4.3 10 14.2 101510 100
2007-06-11 11:26 51°13.213 2°31.177 4.4 10 14.2 101510 100
2007-06-11 11:27 51°13.209 2°31.171 3.5 8 14.2 101510 100
2007-06-11 11:28 51°13.205 2°31.165 2.8 8 14.2 101510 100
2007-06-11 11:29 51°13.201 2°31.16 2.8 359 14.3 101510 100
2007-06-11 11:30 51°13.197 2°31.153 3.1 2 14.2 101510 100
2007-06-11 11:31 51°13.193 2°31.148 3.2 2 14.2 101510 100
2007-06-11 11:32 51°13.188 2°31.142 3.4 358 14.2 101510 100
2007-06-11 11:33 51°13.183 2°31.136 3.5 359 14.1 101510 100
2007-06-11 11:34 51°13.179 2°31.13 3.8 2 14.1 101500 100
2007-06-11 11:35 51°13.174 2°31.124 3.4 6 14.2 101500 100
2007-06-11 11:36 51°13.168 2°31.119 4.1 9 14.1 101490 100
2007-06-11 11:37 51°13.162 2°31.113 4.3 8 14.2 101490 100
2007-06-11 11:38 51°13.156 2°31.107 4 16 14.2 101490 100
2007-06-11 11:39 51°13.149 2°31.099 5.2 9 14.3 101490 100
2007-06-11 11:40 51°13.143 2°31.091 4.7 9 14.3 101490 100
2007-06-11 11:41 51°13.137 2°31.083 3.8 12 14.3 101490 100
2007-06-11 11:42 51°13.131 2°31.074 4.1 10 14.3 101490 100
2007-06-11 11:43 51°13.124 2°31.066 4.4 9 14.3 101490 100
2007-06-11 11:44 51°13.117 2°31.057 4.6 10 14.3 101490 100
2007-06-11 11:45 51°13.11 2°31.048 4.2 9 14.3 101490 100
2007-06-11 11:46 51°13.104 2°31.038 4.6 10 14.2 101490 100
2007-06-11 11:47 51°13.098 2°31.021 4.7 360 14.2 101490 100
2007-06-11 11:48 51°13.118 2°30.964 5.5 333 14.2 101490 100
2007-06-11 11:49 51°13.167 2°30.956 5.3 278 14.3 101480 100
2007-06-11 11:50 51°13.196 2°30.971 4.8 307 14.4 101480 100
2007-06-11 11:51 51°13.201 2°30.977 4.5 304 14.3 101490 100
2007-06-11 11:52 51°13.201 2°30.985 4.1 307 14.4 101490 100
2007-06-11 11:53 51°13.2 2°30.993 4.5 309 14.5 101490 100
2007-06-11 11:54 51°13.197 2°31.002 4.1 304 14.5 101500 100
2007-06-11 11:55 51°13.194 2°31.01 4.6 308 14.4 101490 100
2007-06-11 11:56 51°13.191 2°31.015 4.1 307 14.5 101500 100
2007-06-11 11:57 51°13.188 2°31.019 3.8 280 14.5 101500 100
2007-06-11 11:58 51°13.185 2°31.023 4 302 14.5 101500 100
2007-06-11 11:59 51°13.182 2°31.025 3.5 301 14.5 101500 100
2007-06-11 12:00 51°13.179 2°31.027 4.4 308 14.6 101500 100
2007-06-11 12:01 51°13.176 2°31.029 3.8 301 14.6 101500 100
2007-06-11 12:02 51°13.173 2°31.031 3.8 303 14.6 101500 100
2007-06-11 12:03 51°13.17 2°31.031 3.7 308 14.6 101500 100
2007-06-11 12:04 51°13.167 2°31.031 4.3 303 14.6 101500 100
2007-06-11 12:05 51°13.163 2°31.031 3.2 300 14.6 101500 100
2007-06-11 12:06 51°13.159 2°31.029 3.7 307 14.7 101500 100
2007-06-11 12:07 51°13.164 2°31.052 3.7 278 14.7 101500 100
2007-06-11 12:08 51°13.186 2°31.128 3.7 302 14.7 101500 100
2007-06-11 12:09 51°13.209 2°31.205 4.1 283 14.7 101500 100
2007-06-11 12:10 51°13.226 2°31.253 3.8 303 14.7 101500 100
2007-06-11 12:11 51°13.24 2°31.283 4.1 277 14.6 101490 100
2007-06-11 12:12 51°13.249 2°31.301 4.1 303 14.6 101490 100
2007-06-11 12:13 51°13.254 2°31.312 3.6 284 14.6 101490 100
2007-06-11 12:14 51°13.256 2°31.317 3.5 302 14.7 101490 100
2007-06-11 12:15 51°13.255 2°31.32 4.1 283 14.7 101490 100
2007-06-11 12:16 51°13.254 2°31.32 4 309 14.7 101490 100
2007-06-11 12:17 51°13.25 2°31.318 4.3 277 14.7 101490 100
2007-06-11 12:18 51°13.245 2°31.314 4.5 306 14.7 101490 100
2007-06-11 12:19 51°13.238 2°31.31 4.2 277 14.7 101490 100
2007-06-11 12:20 51°13.244 2°31.328 4.8 309 14.7 101480 100
2007-06-11 12:21 51°13.278 2°31.387 5.4 282 14.7 101480 100
2007-06-11 12:22 51°13.303 2°31.419 5.4 302 14.7 101480 100
2007-06-11 12:23 51°13.32 2°31.436 4.6 278 14.6 101480 100
2007-06-11 12:24 51°13.331 2°31.445 4.6 305 14.6 101480 100
2007-06-11 12:25 51°13.336 2°31.447 4.4 285 14.7 101480 100
2007-06-11 12:26 51°13.338 2°31.448 4.7 308 14.6 101480 100
2007-06-11 12:27 51°13.337 2°31.447 4.1 278 14.6 101480 100
2007-06-11 12:28 51°13.335 2°31.444 4 283 14.7 101480 100
2007-06-11 12:29 51°13.333 2°31.438 4.6 306 14.7 101490 100
2007-06-11 12:30 51°13.331 2°31.43 3.8 282 14.7 101480 100
2007-06-11 12:31 51°13.328 2°31.421 4.3 303 14.7 101480 100
2007-06-11 12:32 51°13.336 2°31.445 5.3 286 14.8 101480 100
2007-06-11 12:33 51°13.33 2°31.592 6 284 14.8 101480 100
2007-06-11 12:34 51°13.391 2°31.863 8.9 305 14.7 101470 100
2007-06-11 12:35 51°13.463 2°32.172 8.9 302 14.7 101470 100
2007-06-11 12:36 51°13.528 2°32.484 8.7 304 14.7 101460 100
2007-06-11 12:37 51°13.588 2°32.8 8.4 306 14.6 101460 100
2007-06-11 12:38 51°13.647 2°33.118 8 302 14.7 101470 100
2007-06-11 12:39 51°13.706 2°33.433 8.5 283 14.7 101460 100
2007-06-11 12:40 51°13.765 2°33.749 8.1 283 14.7 101470 100
2007-06-11 12:41 51°13.824 2°34.066 7.6 302 14.7 101460 100
2007-06-11 12:42 51°13.876 2°34.384 8.2 281 14.7 101460 100
2007-06-11 12:43 51°13.924 2°34.704 8.1 301 14.7 101460 100
2007-06-11 12:44 51°13.956 2°35.03 8.2 281 14.7 101460 100
2007-06-11 12:45 51°13.99 2°35.352 8.3 306 14.7 101460 100
2007-06-11 12:46 51°14.024 2°35.675 8 281 14.7 101460 100
2007-06-11 12:47 51°14.058 2°35.997 8.5 304 14.7 101460 100
2007-06-11 12:48 51°14.092 2°36.319 8.5 280 14.8 101460 100
2007-06-11 12:49 51°14.124 2°36.64 7.5 307 14.8 101460 100
2007-06-11 12:50 51°14.15 2°36.96 7.9 283 14.8 101460 100
2007-06-11 12:51 51°14.17 2°37.281 7.7 307 14.8 101460 100
2007-06-11 12:52 51°14.184 2°37.601 8.6 285 14.8 101460 100
2007-06-11 12:53 51°14.203 2°37.922 8.3 306 14.9 101460 100
2007-06-11 12:54 51°14.223 2°38.246 7.4 277 14.8 101460 100
2007-06-11 12:55 51°14.242 2°38.569 7.7 309 14.9 101460 100
2007-06-11 12:56 51°14.262 2°38.89 7.7 278 14.9 101460 100
2007-06-11 12:57 51°14.282 2°39.209 7.5 304 14.9 101460 100
2007-06-11 12:58 51°14.302 2°39.532 7.5 279 14.9 101460 100
2007-06-11 12:59 51°14.322 2°39.856 8.3 301 14.9 101460 100
2007-06-11 13:00 51°14.343 2°40.179 7.6 281 14.9 101460 100
2007-06-11 13:01 51°14.366 2°40.503 7.6 303 14.9 101460 100
2007-06-11 13:02 51°14.386 2°40.826 8.1 284 14.9 101460 100
2007-06-11 13:03 51°14.406 2°41.149 7.8 278 14.9 101460 100
2007-06-11 13:04 51°14.426 2°41.472 7.3 305 14.9 101460 100
2007-06-11 13:05 51°14.445 2°41.795 7.7 282 14.9 101460 100
2007-06-11 13:06 51°14.463 2°42.119 7.9 308 14.9 101460 100
2007-06-11 13:07 51°14.475 2°42.444 8.4 284 14.9 101460 100
2007-06-11 13:08 51°14.486 2°42.769 8.2 304 15 101460 100
2007-06-11 13:09 51°14.496 2°43.092 8.5 278 15 101450 100
2007-06-11 13:10 51°14.505 2°43.416 8.6 303 15 101450 100
2007-06-11 13:11 51°14.514 2°43.738 8.1 279 15 101460 100
2007-06-11 13:12 51°14.52 2°44.06 8.4 307 15 101450 100
2007-06-11 13:13 51°14.529 2°44.38 8.7 283 15 101450 100
2007-06-11 13:14 51°14.54 2°44.701 7.9 284 15 101450 100
2007-06-11 13:15 51°14.552 2°45.018 7.8 301 15 101460 100
2007-06-11 13:16 51°14.566 2°45.333 8.1 280 15.1 101450 100
2007-06-11 13:17 51°14.58 2°45.644 8.3 303 15.1 101460 100
2007-06-11 13:18 51°14.587 2°45.958 8.5 283 15 101460 100
2007-06-11 13:19 51°14.596 2°46.28 7.8 280 15 101460 100
2007-06-11 13:20 51°14.606 2°46.6 6.6 302 15 101460 100
2007-06-11 13:21 51°14.615 2°46.92 7.2 281 15 101460 100
2007-06-11 13:22 51°14.624 2°47.239 6.1 307 15 101470 100
2007-06-11 13:23 51°14.634 2°47.557 6.4 282 15 101470 100
2007-06-11 13:24 51°14.644 2°47.873 7 278 15 101470 100
2007-06-11 13:25 51°14.654 2°48.191 7.4 305 15 101470 100
2007-06-11 13:26 51°14.661 2°48.51 5.8 283 15 101470 100
2007-06-11 13:27 51°14.67 2°48.83 5.5 309 15 101470 100
2007-06-11 13:28 51°14.678 2°49.15 5.9 282 15.1 101470 100
2007-06-11 13:29 51°14.687 2°49.47 5.3 283 15.1 101480 100
2007-06-11 13:30 51°14.696 2°49.789 5.9 302 15 101470 100
2007-06-11 13:31 51°14.703 2°50.108 6.3 281 15.1 101470 100
2007-06-11 13:32 51°14.711 2°50.426 5.8 307 15 101470 100
2007-06-11 13:33 51°14.719 2°50.746 6 280 15 101480 100
2007-06-11 13:34 51°14.726 2°51.066 6.2 303 15 101480 100
2007-06-11 13:35 51°14.733 2°51.384 6.7 284 15 101470 100
2007-06-11 13:36 51°14.74 2°51.702 5.7 304 15 101480 100
2007-06-11 13:37 51°14.746 2°52.02 5.5 284 15 101470 100
2007-06-11 13:38 51°14.749 2°52.337 6.1 305 15 101470 100
2007-06-11 13:39 51°14.753 2°52.649 6.5 278 15 101470 100
2007-06-11 13:40 51°14.748 2°52.969 6.5 307 15 101460 100
2007-06-11 13:41 51°14.733 2°53.288 5 285 15 101470 100
2007-06-11 13:42 51°14.711 2°53.604 5.5 303 15 101460 100
2007-06-11 13:43 51°14.668 2°53.915 5.6 278 15.1 101470 100
2007-06-11 13:44 51°14.618 2°54.227 5.3 305 15.1 101470 100
2007-06-11 13:45 51°14.542 2°54.526 4.4 283 15.1 101470 100
2007-06-11 13:46 51°14.451 2°54.815 4.8 302 15.1 101470 100
2007-06-11 13:47 51°14.346 2°55.093 4.3 285 15.2 101470 100
2007-06-11 13:48 51°14.219 2°55.327 2.5 302 15.3 101480 100
2007-06-11 13:49 51°14.084 2°55.442 0.4 283 15.3 101470 100
2007-06-11 13:50 51°13.968 2°55.529 0.2 343 15.3 101470 100
2007-06-11 13:51 51°13.856 2°55.612 0.3 17 15.4 101470 100
2007-06-11 13:52 51°13.762 2°55.704 0.9 307 15.5 101470 100
2007-06-11 13:53 51°13.706 2°55.798 0.7 82 15.5 101470 100
2007-06-11 13:54 51°13.662 2°55.885 1.5 81 15.5 101470 100
2007-06-11 13:55 51°13.629 2°55.967 0.8 248 15.5 101460 100
2007-06-11 13:56 51°13.608 2°56.041 1.1 270 15.6 101460 100
2007-06-11 13:57 51°13.6 2°56.087 2.7 307 15.7 101470 100
2007-06-11 13:58 51°13.597 2°56.093 3.4 39 15.7 101470 100